Location: Dennehotso
(36.8461°N, 109.8435°W)
Time: 23:24:02
(UTC+00:00)

N. Korean satellite - Pass Details

Date: 28 February 2021
Orbit: 453 x 499 km, 97.2° (Epoch: 12 April)

Event Time Altitude Azimuth Distance (km) Brightness Sun altitude
Rises 13:05:08 0° 3° (N) 2,513 10.2 -10.0°
Reaches altitude 10° 13:07:15 10° 356° (N) 1,640 9.2 -9.5°
Maximum altitude 13:10:34 40° 285° (WNW) 715 6.9 -8.9°
Drops below altitude 10° 13:13:55 10° 215° (SW) 1,653 9.0 -8.2°
Sets 13:16:03 0° 208° (SSW) 2,537 10.0 -7.8°
